TIANMU-1 06

Last updated on Sun Oct 06 2024 00:02:18 GMT+0000 (Coordinated Universal Time)

1 55976U 23039D 24279.56574492 .00029652 00000+0 11456-2 0 9997 2 55976 97.4792 69.8272 0005257 161.0536 199.0899 15.26190894 85651
UTC large
Height (km)
Speed (km/s)
/
Latitude / Longitude
Inclination (degrees)
Orbital Period (minutes)
Azimuth
Elevation
Range (km)
Doppler Factor

Next 0 passes for location: London (51.5072 / 0.1276)

Sorry there are no passes over London.